Skip Page Navigation
NASA JPL Caltech
NASA Logo - Jet Propulsion Laboratory + View the NASA Portal
+ Center for Near-Earth Object Studies
JPL Home Earth Solar System Stars & Galaxies Technology
JPL Solar System Dynamics
BODIES ORBITS EPHEMERIDES TOOLS PHYSICAL DATA DISCOVERY FAQ SITE MAP
IMPORTANT: The SSD Announcement email list is now available. Major changes are coming in the near future, including possible hostname and/or URL changes. To be notified of such changes, subscribe to this email list.

Please visit this page for more details.


JPL Small-Body Database Browser
Search: [ help ]  
26825 (1989 SB14)
Classification: Main-belt Asteroid          SPK-ID: 2026825
Ephemeris | Orbit Diagram | Orbital Elements | Mission Design | Physical Parameters | Discovery Circumstances ]

[ show orbit diagram ]
Orbital Elements at Epoch 2458600.5 (2019-Apr-27.0) TDB
Reference: JPL 20 (heliocentric ecliptic J2000)
 Element Value Uncertainty (1-sigma)   Units 
e .1541564119630163 4.9428e-08  
a 2.580533939011003 1.5341e-08 au
q 2.182728086024277 1.2716e-07 au
i 13.3393322014143 5.4113e-06 deg
node 266.253231607492 2.0456e-05 deg
peri 23.90954570326526 2.9155e-05 deg
M 123.6579404773681 2.5059e-05 deg
tp 2458080.405455808102
(2017-Nov-22.90545581)
0.00010299 TDB
period 1514.128693930099
4.15
1.3502e-05
3.697e-08
d
yr
n .2377605030821903 2.1201e-09 deg/d
Q 2.978339791997728 1.7705e-08 au
  Orbit Determination Parameters
   # obs. used (total)      874  
   data-arc span      10988 days (30.08 yr)  
   first obs. used      1989-09-26  
   last obs. used      2019-10-27  
   planetary ephem.      DE431  
   SB-pert. ephem.      SB431-N16  
   condition code      0  
   norm. resid. RMS      .54443  
   source      ORB  
   producer      Otto Matic  
   solution date      2019-Nov-07 04:55:40  

Additional Information
 Earth MOID = 1.17204 au 
 Jupiter MOID = 2.18759 au 
 T_jup = 3.370 
[ show covariance matrix ]

Ephemeris | Orbit Diagram | Orbital Elements | Mission Design | Physical Parameters | Discovery Circumstances ]

Physical Parameter Table
Parameter Symbol Value Units Sigma Reference Notes
absolute magnitude H 14.7   n/a MPO358880  

26825 (1989 SB14)          Discovered 1989-Sep-26 by Baur, J. M., Birkle, K. at Calar Alto
Reference: 20010804/Numbers.arcLast Updated: 2004-04-19

Alternate Designations
 1989 SB14 = 2000 GM152 
Ephemeris | Orbit Diagram | Orbital Elements | Mission Design | Physical Parameters | Discovery Circumstances ]
ABOUT SSD CREDITS/AWARDS PRIVACY/COPYRIGHT GLOSSARY LINKS
FirstGov
(server date/time)  
NASA Home Page
Site Manager:   Ryan S. Park
Webmaster  Alan B. Chamberlin